Piney Island, NC

1:44 AM EDT on August 19, 2017 (GMT -0400)
Piney Island

Weather History for KNBT - August, 2012

Change the Weather History Date:

Friday, August 24, 2012

  Actual Average (KMRH) Record (KMRH)
Temperature  
Mean Temperature 78 °F -  
Max Temperature 82 °F 86 °F 95 °F (1968)
Min Temperature 75 °F 69 °F 59 °F (1985)
Cooling Degree Days 13    
Growing Degree Days 28 (Base 50)    
Moisture  
Dew Point 73 °F    
Average Humidity 85    
Maximum Humidity 100    
Minimum Humidity 69    
Precipitation  
Precipitation 1.47 in - - ()
Sea Level Pressure  
Sea Level Pressure 30.06 in    
Wind  
Wind Speed 10 mph (NE)    
Max Wind Speed 20 mph    
Max Gust Speed 30 mph    
Visibility 8 miles    
Events Rain    
Averages and records for this station are not official NWS values.
T = Trace of Precipitation, MM = Missing Value Source: NWS Daily Summary

Daily Weather History Graph

Daily Weather History Graph

Search for Another Location

Airport or City:

Trip Planner

Search our weather history database for the weather conditions in past years. The results will help you decide how hot, cold, wet, or windy it might be!

Date:

Astronomy

Aug. 24, 2012 Rise Set
Actual Time 6:32 AM EDT 7:42 PM EDT
Civil Twilight 6:06 AM EDT 8:08 PM EDT
Nautical Twilight 5:35 AM EDT 8:39 PM EDT
Astronomical Twilight 5:02 AM EDT 9:12 PM EDT
Moon 2:03 PM EDT (8/24) No Moon Set
Length of Visible Light 14h 02m
Length of Day
13h 09m
Waxing Crescent, 51% of the Moon is Illuminated
Aug 24
Waxing Crescent
Aug 31
Full
Sep 8
Last Quarter
Sep 15
New
Sep 22
First Quarter

Hourly Weather History & Observations

Time (EDT) Temp. Heat Index Dew Point Humidity Pressure Visibility Wind Dir Wind Speed Gust Speed Precip Events Conditions
12:56 AM 78.1 °F - 72.0 °F 81% 30.07 in 9.0 mi East 9.2 mph - 0.05 in Rain Light Rain
1:43 AM 78.8 °F - 73.4 °F 83% 30.03 in 10.0 mi ENE 5.8 mph - 0.03 in Rain Light Rain
1:56 AM 78.1 °F - 73.0 °F 84% 30.05 in 10.0 mi East 6.9 mph - 0.03 in   Partly Cloudy
2:21 AM 78.8 °F - 73.4 °F 83% 30.04 in 10.0 mi East 6.9 mph - N/A   Mostly Cloudy
2:37 AM 77.0 °F - 73.4 °F 89% 30.04 in 4.0 mi SSE 10.4 mph 19.6 mph 0.07 in Rain Light Rain
2:43 AM 77.0 °F - 73.4 °F 89% 30.03 in 1.8 mi SSE 5.8 mph 19.6 mph 0.19 in Rain Heavy Rain
2:54 AM 75.2 °F - 75.2 °F 100% 30.03 in 2.0 mi South 3.5 mph - 0.32 in Rain Heavy Rain
2:56 AM 75.9 °F - 75.9 °F 100% 30.05 in 2.5 mi South 3.5 mph - 0.32 in Rain Heavy Rain
3:03 AM 75.2 °F - 75.2 °F 100% 30.03 in 4.0 mi Calm Calm - 0.02 in Rain Rain
3:13 AM 75.2 °F - 75.2 °F 100% 30.03 in 4.0 mi Calm Calm - 0.06 in Rain Heavy Rain
3:56 AM 75.0 °F - 73.9 °F 96% 30.05 in 10.0 mi WSW 3.5 mph - 0.08 in   Overcast
4:56 AM 75.9 °F - 73.0 °F 91% 30.05 in 10.0 mi NW 3.5 mph - N/A   Mostly Cloudy
5:19 AM 75.2 °F - 71.6 °F 89% 30.03 in 10.0 mi NNW 11.5 mph - N/A   Overcast
5:36 AM 75.2 °F - 71.6 °F 89% 30.04 in 10.0 mi NNW 5.8 mph - 0.00 in Rain Light Rain
5:56 AM 75.0 °F - 73.0 °F 94% 30.05 in 10.0 mi NNW 6.9 mph - 0.00 in Rain Light Rain
6:05 AM 75.2 °F - 73.4 °F 94% 30.04 in 10.0 mi North 9.2 mph - 0.00 in   Overcast
6:15 AM 75.2 °F - 73.4 °F 94% 30.04 in 10.0 mi North 9.2 mph - 0.00 in Rain Light Rain
6:27 AM 75.2 °F - 73.4 °F 94% 30.04 in 10.0 mi North 9.2 mph - 0.00 in Rain Light Rain
6:56 AM 75.9 °F - 73.9 °F 94% 30.07 in 10.0 mi North 8.1 mph - 0.00 in   Scattered Clouds
7:03 AM 77.0 °F - 73.4 °F 89% 30.06 in 10.0 mi NNE 9.2 mph - N/A   Mostly Cloudy
7:14 AM 75.2 °F - 71.6 °F 89% 30.06 in 5.0 mi NE 10.4 mph - 0.00 in Rain Light Rain
7:18 AM 75.2 °F - 71.6 °F 89% 30.06 in 2.5 mi NE 12.7 mph 19.6 mph 0.02 in Rain Light Rain
7:27 AM 75.2 °F - 71.6 °F 89% 30.06 in 2.0 mi NE 11.5 mph - 0.04 in Rain Rain
7:40 AM 75.2 °F - 69.8 °F 83% 30.07 in 10.0 mi NE 10.4 mph - 0.04 in Rain Light Rain
7:56 AM 75.9 °F - 72.0 °F 87% 30.09 in 6.0 mi NE 9.2 mph - 0.04 in Rain Light Rain
8:29 AM 77.0 °F - 71.6 °F 83% 30.07 in 10.0 mi NNE 11.5 mph - 0.01 in   Mostly Cloudy
8:56 AM 78.1 °F - 72.0 °F 81% 30.09 in 8.0 mi NNE 12.7 mph - 0.01 in   Mostly Cloudy
9:24 AM 78.8 °F - 71.6 °F 78% 30.08 in 9.0 mi NNE 12.7 mph - N/A   Mostly Cloudy
9:35 AM 78.8 °F - 71.6 °F 78% 30.08 in 10.0 mi NNE 12.7 mph - N/A   Scattered Clouds
9:48 AM 78.8 °F - 71.6 °F 78% 30.08 in 10.0 mi NNE 13.8 mph - N/A   Mostly Cloudy
9:56 AM 78.1 °F - 71.1 °F 79% 30.10 in 10.0 mi NNE 15.0 mph - N/A   Mostly Cloudy
10:17 AM 78.8 °F - 71.6 °F 78% 30.09 in 10.0 mi NNE 11.5 mph - N/A   Mostly Cloudy
10:23 AM 78.8 °F - 71.6 °F 78% 30.09 in 10.0 mi NE 12.7 mph - N/A   Mostly Cloudy
10:40 AM 78.8 °F - 71.6 °F 78% 30.10 in 10.0 mi NNE 12.7 mph - N/A   Mostly Cloudy
10:56 AM 78.1 °F - 72.0 °F 81% 30.12 in 10.0 mi NNE 15.0 mph - N/A   Overcast
11:24 AM 78.8 °F - 71.6 °F 78% 30.10 in 10.0 mi NE 16.1 mph 23.0 mph N/A   Overcast
11:31 AM 78.8 °F - 71.6 °F 78% 30.10 in 10.0 mi NE 15.0 mph 23.0 mph N/A   Overcast
11:40 AM 78.8 °F - 71.6 °F 78% 30.10 in 10.0 mi NNE 17.3 mph - N/A   Overcast
11:56 AM 79.0 °F - 70.0 °F 74% 30.11 in 10.0 mi NE 18.4 mph 24.2 mph N/A   Overcast
12:17 PM 80.6 °F 84.6 °F 71.6 °F 74% 30.08 in 10.0 mi NE 19.6 mph - N/A   Mostly Cloudy
12:26 PM 80.6 °F 84.6 °F 71.6 °F 74% 30.07 in 10.0 mi NE 18.4 mph 24.2 mph N/A   Mostly Cloudy
12:56 PM 81.0 °F 84.4 °F 70.0 °F 69% 30.09 in 10.0 mi NE 18.4 mph - N/A   Mostly Cloudy
1:56 PM 80.1 °F 83.6 °F 71.1 °F 74% 30.09 in 10.0 mi NE 13.8 mph - 0.00 in Rain Light Rain
2:10 PM 80.6 °F 84.6 °F 71.6 °F 74% 30.08 in 10.0 mi ENE 15.0 mph - 0.00 in   Overcast
2:56 PM 80.1 °F 83.6 °F 71.1 °F 74% 30.09 in 10.0 mi NE 16.1 mph - 0.00 in   Overcast
3:56 PM 81.0 °F 84.9 °F 71.1 °F 72% 30.07 in 10.0 mi ENE 15.0 mph - N/A   Mostly Cloudy
4:56 PM 80.1 °F 83.6 °F 71.1 °F 74% 30.07 in 10.0 mi ENE 13.8 mph 19.6 mph N/A   Clear
5:56 PM 80.1 °F 83.2 °F 70.0 °F 71% 30.06 in 10.0 mi NE 15.0 mph - N/A   Scattered Clouds
6:12 PM 80.6 °F 84.6 °F 71.6 °F 74% 30.05 in 10.0 mi NE 12.7 mph - N/A   Overcast
6:35 PM 78.8 °F - 71.6 °F 78% 30.04 in 7.0 mi NE 16.1 mph - 0.01 in Rain Light Rain
6:56 PM 79.0 °F - 72.0 °F 79% 30.05 in 10.0 mi NE 15.0 mph - 0.02 in   Mostly Cloudy
7:11 PM 78.8 °F - 71.6 °F 78% 30.04 in 10.0 mi NE 17.3 mph - N/A   Mostly Cloudy
7:52 PM 78.8 °F - 71.6 °F 78% 30.05 in 9.0 mi NNE 15.0 mph 23.0 mph 0.01 in Rain Light Rain
7:56 PM 78.1 °F - 72.0 °F 81% 30.06 in 9.0 mi NE 13.8 mph - 0.01 in Rain Light Rain
8:07 PM 78.8 °F - 73.4 °F 83% 30.04 in 8.0 mi NNE 17.3 mph 23.0 mph 0.02 in Rain Light Rain
8:41 PM 78.8 °F - 73.4 °F 83% 30.04 in 5.0 mi North - - 0.06 in Rain Light Rain
8:56 PM 78.1 °F - 73.0 °F 84% 30.04 in 5.0 mi NNE 17.3 mph 23.0 mph 0.11 in Rain Rain
9:15 PM 78.8 °F - 73.4 °F 83% 30.02 in 3.0 mi NE 16.1 mph 20.7 mph 0.08 in   Haze
9:45 PM 78.8 °F - 75.2 °F 89% 30.05 in 2.5 mi ENE 15.0 mph 23.0 mph 0.30 in Rain Heavy Rain
9:56 PM 78.1 °F - 75.0 °F 90% 30.08 in 2.5 mi East 16.1 mph 23.0 mph 0.40 in Rain Heavy Rain
10:03 PM 78.8 °F - 75.2 °F 89% 30.07 in 3.0 mi East 17.3 mph 24.2 mph 0.04 in Rain Heavy Rain
10:07 PM 75.2 °F - 73.4 °F 94% 30.07 in 1.8 mi East 19.6 mph 29.9 mph 0.16 in Rain Heavy Rain
10:18 PM 75.2 °F - 73.4 °F 94% 30.05 in 2.0 mi ENE 11.5 mph - 0.31 in Rain Heavy Rain
10:25 PM 75.2 °F - 73.4 °F 94% 30.05 in 5.0 mi ENE 6.9 mph - 0.33 in Rain Rain
10:32 PM 75.2 °F - 75.2 °F 100% 30.06 in 6.0 mi NNE 5.8 mph - 0.35 in Rain Rain
10:56 PM 75.0 °F - 73.0 °F 94% 30.07 in 5.0 mi East 13.8 mph - 0.40 in Rain Rain
11:16 PM 75.2 °F - 71.6 °F 89% 30.06 in 10.0 mi East 13.8 mph 21.9 mph 0.00 in   Mostly Cloudy
11:25 PM 75.2 °F - 73.4 °F 94% 30.05 in 9.0 mi East 15.0 mph 21.9 mph 0.00 in   Mostly Cloudy
11:56 PM 75.0 °F - 73.0 °F 94% 30.06 in 10.0 mi East 12.7 mph - 0.00 in   Clear